QF69 YMHB-YMHB

Flight info

Callsign QF69
Flight time N/A
Altitude 18000
Route 4350S14734E 4350S14732E 4350S14730E 4351S14728E 4351S14725E 4352S14721E 4353S14717E 4356S14715E 4358S14715E 4400S14716E 4403S14717E 4405S14720E 4407S14722E 4408S14725E 4409S14728E 4409S14733E 4419S14738E 4427S14739E 4435S14738E 4441S14738E YMHB
Aircraft A20N/M-SDE2E3FGHIRWXY/LB1

Departure

Time 2026-05-06 05:09
Airport Hobart International Airport (YMHB)

Arrival

Time N/A
Airport Hobart International Airport (YMHB)
Time Latitude Longitude Altitude Speed Heading
2026-05-06 04:54 -42.83609 147.50500 18 ft 0 kts 134°
2026-05-06 05:04 -42.83616 147.50515 18 ft 5 kts 119°
2026-05-06 05:04 -42.83612 147.50554 19 ft 8 kts 69°
2026-05-06 05:04 -42.83582 147.50660 20 ft 15 kts 59°
2026-05-06 05:04 -42.83503 147.50656 20 ft 14 kts 316°
2026-05-06 05:05 -42.83417 147.50558 17 ft 17 kts 353°
2026-05-06 05:05 -42.83352 147.50587 18 ft 0 kts 41°
2026-05-06 05:06 -42.83342 147.50599 18 ft 7 kts 42°
2026-05-06 05:06 -42.83271 147.50668 14 ft 12 kts 358°
2026-05-06 05:06 -42.83203 147.50614 17 ft 11 kts 313°
2026-05-06 05:07 -42.83138 147.50520 18 ft 16 kts 314°
2026-05-06 05:07 -42.83049 147.50397 19 ft 19 kts 314°
2026-05-06 05:07 -42.82955 147.50252 19 ft 22 kts 302°
2026-05-06 05:07 -42.82886 147.50111 21 ft 13 kts 355°
2026-05-06 05:08 -42.82860 147.50136 20 ft 2 kts 98°
2026-05-06 05:08 -42.82974 147.50312 21 ft 64 kts 135°
2026-05-06 05:08 -42.83496 147.51016 20 ft 141 kts 135°
2026-05-06 05:08 -42.84304 147.52096 207 ft 177 kts 135°
2026-05-06 05:09 -42.85153 147.53257 1051 ft 168 kts 137°
2026-05-06 05:09 -42.85953 147.54385 1885 ft 168 kts 139°
2026-05-06 05:09 -42.86823 147.55564 2375 ft 185 kts 141°
2026-05-06 05:09 -42.87780 147.56793 3022 ft 191 kts 145°
2026-05-06 05:10 -42.88902 147.57814 3657 ft 201 kts 167°
2026-05-06 05:10 -42.90307 147.57933 4282 ft 210 kts 200°
2026-05-06 05:10 -42.91765 147.57368 5000 ft 231 kts 204°
2026-05-06 05:10 -42.93427 147.56805 5790 ft 260 kts 197°
2026-05-06 05:11 -42.95307 147.56477 6693 ft 283 kts 189°
2026-05-06 05:11 -42.97291 147.56372 7926 ft 289 kts 186°
2026-05-06 05:11 -42.99342 147.56368 9072 ft 300 kts 185°
2026-05-06 05:11 -43.01458 147.56397 10195 ft 308 kts 185°
2026-05-06 05:12 -43.03675 147.56422 10969 ft 330 kts 185°
2026-05-06 05:12 -43.06057 147.56434 11503 ft 355 kts 185°
2026-05-06 05:12 -43.08552 147.56446 12278 ft 368 kts 185°
2026-05-06 05:12 -43.11132 147.56463 13323 ft 373 kts 185°
2026-05-06 05:13 -43.13761 147.56479 14222 ft 382 kts 185°
2026-05-06 05:13 -43.16451 147.56489 15046 ft 391 kts 186°
2026-05-06 05:13 -43.19213 147.56496 15813 ft 402 kts 186°
2026-05-06 05:13 -43.22045 147.56504 16681 ft 410 kts 186°
2026-05-06 05:14 -43.24932 147.56514 17448 ft 419 kts 186°
2026-05-06 05:14 -43.27874 147.56525 17759 ft 423 kts 186°
2026-05-06 05:14 -43.30819 147.56539 17839 ft 423 kts 186°
2026-05-06 05:14 -43.33732 147.56551 17840 ft 423 kts 186°
2026-05-06 05:15 -43.36676 147.56561 17837 ft 423 kts 186°
2026-05-06 05:15 -43.39622 147.56573 17841 ft 423 kts 187°
2026-05-06 05:15 -43.42559 147.56581 17820 ft 422 kts 187°
2026-05-06 05:15 -43.45506 147.56585 17837 ft 423 kts 187°
2026-05-06 05:16 -43.48455 147.56589 17840 ft 423 kts 187°
2026-05-06 05:16 -43.51398 147.56595 17837 ft 423 kts 187°
2026-05-06 05:16 -43.54342 147.56602 17837 ft 423 kts 187°
2026-05-06 05:16 -43.57283 147.56609 17837 ft 423 kts 187°
2026-05-06 05:17 -43.60218 147.56535 17853 ft 417 kts 194°
2026-05-06 05:17 -43.62964 147.55582 17835 ft 398 kts 213°
2026-05-06 05:17 -43.65260 147.53677 17837 ft 378 kts 229°
2026-05-06 05:17 -43.67122 147.51205 17835 ft 366 kts 239°
2026-05-06 05:18 -43.68778 147.48553 17837 ft 364 kts 241°
2026-05-06 05:18 -43.70388 147.45863 17835 ft 363 kts 241°
2026-05-06 05:18 -43.71984 147.43169 17835 ft 363 kts 241°
2026-05-06 05:18 -43.73873 147.40740 17835 ft 383 kts 224°
2026-05-06 05:19 -43.76221 147.38886 17846 ft 392 kts 218°
2026-05-06 05:19 -43.78661 147.37189 17832 ft 393 kts 217°
2026-05-06 05:19 -43.81085 147.35549 17831 ft 393 kts 216°
2026-05-06 05:19 -43.83536 147.33874 17830 ft 391 kts 219°
2026-05-06 05:20 -43.85768 147.31848 17835 ft 377 kts 229°
2026-05-06 05:20 -43.87822 147.29585 17832 ft 377 kts 229°
2026-05-06 05:20 -43.89976 147.27437 17823 ft 386 kts 222°
2026-05-06 05:20 -43.92404 147.25720 17829 ft 396 kts 213°
2026-05-06 05:21 -43.95117 147.24678 17833 ft 416 kts 195°
2026-05-06 05:21 -43.98064 147.24755 17830 ft 432 kts 176°
2026-05-06 05:21 -44.00975 147.25985 17816 ft 441 kts 161°
2026-05-06 05:21 -44.03828 147.27556 17822 ft 442 kts 161°
2026-05-06 05:22 -44.06488 147.29736 17824 ft 447 kts 142°
2026-05-06 05:22 -44.08754 147.32705 17820 ft 448 kts 136°
2026-05-06 05:22 -44.11103 147.35540 17821 ft 448 kts 139°
2026-05-06 05:22 -44.13141 147.38732 17821 ft 446 kts 121°
2026-05-06 05:23 -44.14531 147.42550 17821 ft 440 kts 107°
2026-05-06 05:23 -44.15271 147.46612 17823 ft 429 kts 89°
2026-05-06 05:23 -44.15240 147.54763 17820 ft 425 kts 87°
2026-05-06 05:24 -44.15871 147.58833 17819 ft 438 kts 105°
2026-05-06 05:24 -44.17307 147.62615 17819 ft 446 kts 124°
2026-05-06 05:24 -44.19433 147.65751 17819 ft 447 kts 142°
2026-05-06 05:24 -44.22079 147.67977 17818 ft 442 kts 161°
2026-05-06 05:25 -44.25005 147.69101 17818 ft 430 kts 179°
2026-05-06 05:25 -44.27938 147.69053 17854 ft 414 kts 198°
2026-05-06 05:25 -44.30619 147.67899 17811 ft 394 kts 216°
2026-05-06 05:25 -44.33038 147.66221 17811 ft 395 kts 215°
2026-05-06 05:26 -44.35690 147.64891 17813 ft 409 kts 202°
2026-05-06 05:26 -44.38526 147.64407 17813 ft 421 kts 190°
2026-05-06 05:26 -44.41477 147.64471 17814 ft 428 kts 184°
2026-05-06 05:26 -44.44452 147.64753 17809 ft 426 kts 185°
2026-05-06 05:27 -44.47391 147.64618 17813 ft 419 kts 193°
2026-05-06 05:27 -44.50171 147.64299 17823 ft 420 kts 193°
2026-05-06 05:27 -44.53044 147.63967 17807 ft 418 kts 193°
2026-05-06 05:27 -44.55951 147.63620 17805 ft 418 kts 193°
2026-05-06 05:28 -44.58860 147.63322 17804 ft 422 kts 189°
2026-05-06 05:28 -44.61806 147.63326 17802 ft 424 kts 188°
2026-05-06 05:28 -44.64752 147.63332 17802 ft 424 kts 188°
2026-05-06 05:28 -44.67703 147.63336 17802 ft 424 kts 187°
2026-05-06 05:29 -44.70668 147.63617 17802 ft 429 kts 182°
2026-05-06 05:29 -44.73643 147.63996 17801 ft 429 kts 182°
2026-05-06 05:29 -44.76625 147.64370 17800 ft 430 kts 182°
2026-05-06 05:29 -44.79567 147.64812 17799 ft 434 kts 176°
2026-05-06 05:30 -44.82539 147.65993 17804 ft 442 kts 162°
2026-05-06 05:30 -44.85260 147.67967 17801 ft 447 kts 152°
2026-05-06 05:30 -44.87929 147.70208 17796 ft 447 kts 151°
2026-05-06 05:30 -44.90409 147.72905 17789 ft 449 kts 134°
2026-05-06 05:31 -44.92271 147.76409 17798 ft 445 kts 115°
2026-05-06 05:31 -44.93375 147.80439 17791 ft 435 kts 96°
2026-05-06 05:31 -44.93683 147.84620 17802 ft 424 kts 83°
2026-05-06 05:31 -44.93657 147.88715 17794 ft 422 kts 79°
2026-05-06 05:32 -44.93392 147.92807 17793 ft 415 kts 72°
2026-05-06 05:32 -44.92861 147.96773 17793 ft 411 kts 69°
2026-05-06 05:32 -44.92325 148.00739 17793 ft 413 kts 70°
2026-05-06 05:32 -44.91729 148.04669 17793 ft 404 kts 63°
2026-05-06 05:33 -44.90693 148.08280 17796 ft 391 kts 51°
2026-05-06 05:33 -44.89264 148.11456 17797 ft 379 kts 42°
2026-05-06 05:33 -44.87479 148.14034 17797 ft 356 kts 24°
2026-05-06 05:33 -44.85336 148.15532 17790 ft 334 kts
2026-05-06 05:34 -44.83094 148.16221 17799 ft 327 kts 360°
2026-05-06 05:34 -44.80853 148.16465 17795 ft 320 kts 352°
2026-05-06 05:34 -44.78641 148.16325 17796 ft 315 kts 347°
2026-05-06 05:34 -44.76488 148.15853 17798 ft 312 kts 342°
2026-05-06 05:35 -44.74387 148.15253 17796 ft 313 kts 343°
2026-05-06 05:35 -44.72240 148.14693 17799 ft 313 kts 343°
2026-05-06 05:35 -44.70095 148.14156 17809 ft 313 kts 343°
2026-05-06 05:35 -44.67949 148.13626 17801 ft 313 kts 343°
2026-05-06 05:36 -44.65821 148.13042 17802 ft 311 kts 341°
2026-05-06 05:36 -44.63772 148.12138 17804 ft 306 kts 332°
2026-05-06 05:36 -44.61954 148.10626 17799 ft 305 kts 320°
2026-05-06 05:36 -44.60607 148.08349 17804 ft 307 kts 301°
2026-05-06 05:37 -44.59959 148.05452 17804 ft 317 kts 285°
2026-05-06 05:37 -44.59813 148.02338 17801 ft 323 kts 278°
2026-05-06 05:37 -44.59851 147.99218 17840 ft 324 kts 276°
2026-05-06 05:37 -44.59932 147.96068 17800 ft 322 kts 275°
2026-05-06 05:38 -44.60193 147.92916 17806 ft 329 kts 269°
2026-05-06 05:38 -44.60584 147.89753 17804 ft 328 kts 269°
2026-05-06 05:38 -44.60952 147.86592 17799 ft 328 kts 270°
2026-05-06 05:38 -44.61307 147.83428 17806 ft 328 kts 270°
2026-05-06 05:39 -44.61620 147.80269 17832 ft 324 kts 273°
2026-05-06 05:39 -44.61694 147.77128 17805 ft 320 kts 278°
2026-05-06 05:39 -44.62042 147.73987 17805 ft 337 kts 261°
2026-05-06 05:39 -44.63202 147.71054 17805 ft 360 kts 242°
2026-05-06 05:40 -44.65118 147.68636 17802 ft 384 kts 223°
2026-05-06 05:40 -44.67617 147.67075 17802 ft 406 kts 205°
2026-05-06 05:40 -44.70478 147.66588 17802 ft 424 kts 186°
2026-05-06 05:40 -44.73430 147.67283 17798 ft 439 kts 167°
2026-05-06 05:41 -44.76212 147.69155 17793 ft 447 kts 148°
2026-05-06 05:41 -44.78546 147.72042 17796 ft 448 kts 129°
2026-05-06 05:41 -44.80229 147.75699 17792 ft 443 kts 110°
2026-05-06 05:41 -44.81116 147.79784 17799 ft 432 kts 91°
2026-05-06 05:42 -44.81155 147.83912 17792 ft 414 kts 72°
2026-05-06 05:42 -44.80382 147.87704 17796 ft 394 kts 55°
2026-05-06 05:42 -44.79151 147.91103 17747 ft 387 kts 50°
2026-05-06 05:42 -44.77800 147.94396 17797 ft 387 kts 48°
2026-05-06 05:43 -44.76424 147.97653 17797 ft 386 kts 48°
2026-05-06 05:43 -44.75047 148.00892 17797 ft 386 kts 48°
2026-05-06 05:43 -44.73684 148.04092 17799 ft 386 kts 48°
2026-05-06 05:43 -44.72362 148.07434 17798 ft 396 kts 57°
2026-05-06 05:44 -44.71647 148.11256 17800 ft 416 kts 75°
2026-05-06 05:44 -44.71735 148.15391 17788 ft 431 kts 94°
2026-05-06 05:44 -44.72658 148.19459 17799 ft 442 kts 112°
2026-05-06 05:44 -44.74330 148.23041 17796 ft 447 kts 130°
2026-05-06 05:45 -44.76660 148.25918 17797 ft 446 kts 149°
2026-05-06 05:45 -44.79432 148.27792 17798 ft 439 kts 167°
2026-05-06 05:45 -44.82391 148.28512 17792 ft 426 kts 186°
2026-05-06 05:45 -44.85262 148.28053 17792 ft 408 kts 205°
2026-05-06 05:46 -44.87877 148.26705 17795 ft 397 kts 213°
2026-05-06 05:46 -44.90389 148.25086 17836 ft 395 kts 216°
2026-05-06 05:46 -44.92861 148.23413 17793 ft 393 kts 217°
2026-05-06 05:46 -44.95322 148.21727 17796 ft 393 kts 217°
2026-05-06 05:47 -44.97750 148.20058 17796 ft 393 kts 217°
2026-05-06 05:47 -45.00208 148.18366 17791 ft 393 kts 217°
2026-05-06 05:47 -45.02666 148.16673 17786 ft 393 kts 217°
2026-05-06 05:47 -45.05119 148.14983 17791 ft 393 kts 217°
2026-05-06 05:48 -45.07571 148.13294 17783 ft 392 kts 217°
2026-05-06 05:48 -45.10030 148.11600 17796 ft 393 kts 217°
2026-05-06 05:48 -45.12494 148.09913 17787 ft 394 kts 215°
2026-05-06 05:48 -45.15185 148.08795 17790 ft 415 kts 197°
2026-05-06 05:49 -45.18117 148.08809 17787 ft 431 kts 178°
2026-05-06 05:49 -45.21035 148.10015 17787 ft 442 kts 159°
2026-05-06 05:49 -45.23651 148.12335 17786 ft 447 kts 140°
2026-05-06 05:49 -45.25743 148.15596 17782 ft 446 kts 122°
2026-05-06 05:50 -45.27118 148.19493 17784 ft 438 kts 103°
2026-05-06 05:50 -45.27669 148.23662 17784 ft 424 kts 84°
2026-05-06 05:50 -45.27569 148.26387 17783 ft 412 kts 72°
2026-05-06 05:50 -45.26750 148.30175 17790 ft 391 kts 53°
2026-05-06 05:51 -45.25241 148.33251 17787 ft 368 kts 34°
2026-05-06 05:51 -45.23294 148.35444 17787 ft 353 kts 22°
2026-05-06 05:51 -45.20544 148.37855 17785 ft 349 kts 19°
2026-05-06 05:51 -45.18450 148.39600 17784 ft 349 kts 19°
2026-05-06 05:52 -45.17033 148.40772 17745 ft 349 kts 19°
2026-05-06 05:52 -45.15107 148.42363 17773 ft 346 kts 19°
2026-05-06 05:52 -45.12985 148.44115 17791 ft 349 kts 19°
2026-05-06 05:52 -45.10885 148.45847 17789 ft 349 kts 19°
2026-05-06 05:53 -45.08757 148.47248 17790 ft 334 kts
2026-05-06 05:53 -45.06521 148.47616 17789 ft 317 kts 349°
2026-05-06 05:53 -45.04407 148.46975 17785 ft 306 kts 334°
2026-05-06 05:53 -45.02582 148.45467 17792 ft 305 kts 319°
2026-05-06 05:54 -45.01180 148.43256 17789 ft 302 kts 305°
2026-05-06 05:54 -45.00050 148.40741 17794 ft 303 kts 304°
2026-05-06 05:54 -44.98918 148.38220 17793 ft 303 kts 305°
2026-05-06 05:54 -44.97785 148.35712 17788 ft 303 kts 305°
2026-05-06 05:55 -44.96647 148.33203 17784 ft 303 kts 305°
2026-05-06 05:55 -44.95524 148.30731 17791 ft 303 kts 305°
2026-05-06 05:55 -44.94385 148.28229 17793 ft 303 kts 305°
2026-05-06 05:55 -44.93246 148.25731 17789 ft 303 kts 305°
2026-05-06 05:56 -44.92103 148.23228 17790 ft 303 kts 305°
2026-05-06 05:56 -44.90962 148.20731 17789 ft 303 kts 305°
2026-05-06 05:56 -44.89734 148.18324 17792 ft 301 kts 313°
2026-05-06 05:56 -44.88133 148.16429 17786 ft 303 kts 325°
2026-05-06 05:57 -44.86203 148.15189 17782 ft 310 kts 338°
2026-05-06 05:57 -44.84039 148.14707 17795 ft 319 kts 350°
2026-05-06 05:57 -44.81816 148.14592 17794 ft 319 kts 351°
2026-05-06 05:57 -44.79595 148.14475 17794 ft 319 kts 350°
2026-05-06 05:58 -44.77408 148.14353 17794 ft 319 kts 350°
2026-05-06 05:58 -44.75188 148.14226 17794 ft 319 kts 350°
2026-05-06 05:58 -44.72967 148.14096 17794 ft 319 kts 350°
2026-05-06 05:58 -44.70743 148.13966 17804 ft 319 kts 350°
2026-05-06 05:59 -44.68530 148.13837 17795 ft 318 kts 350°
2026-05-06 05:59 -44.66312 148.13706 17795 ft 319 kts 350°
2026-05-06 05:59 -44.64095 148.13576 17756 ft 318 kts 350°
2026-05-06 05:59 -44.61916 148.13328 17797 ft 315 kts 344°
2026-05-06 06:00 -44.59818 148.12540 17799 ft 309 kts 335°
2026-05-06 06:00 -44.57902 148.11230 17802 ft 306 kts 326°
2026-05-06 06:00 -44.56138 148.09570 17795 ft 306 kts 328°
2026-05-06 06:00 -44.54096 148.08640 17803 ft 316 kts 347°
2026-05-06 06:01 -44.51856 148.08757 17803 ft 327 kts 359°
2026-05-06 06:01 -44.49600 148.09353 17802 ft 332 kts
2026-05-06 06:01 -44.47356 148.10176 17798 ft 333 kts
2026-05-06 06:01 -44.45137 148.10858 17795 ft 330 kts
2026-05-06 06:02 -44.42910 148.11407 17802 ft 328 kts
2026-05-06 06:02 -44.40663 148.11702 17775 ft 322 kts 354°
2026-05-06 06:02 -44.38427 148.11691 17801 ft 321 kts 352°
2026-05-06 06:02 -44.36218 148.11437 17817 ft 316 kts 346°
2026-05-06 06:03 -44.34067 148.10839 17802 ft 313 kts 341°
2026-05-06 06:03 -44.31955 148.10111 17801 ft 313 kts 341°
2026-05-06 06:03 -44.29840 148.09395 17805 ft 313 kts 341°
2026-05-06 06:03 -44.27723 148.08685 17804 ft 313 kts 341°
2026-05-06 06:04 -44.25788 148.07912 17807 ft 310 kts 336°